When you browse on this site, cookies collect data to enhance your experience and personalize the content and advertising you see.
Visit our Privacy Policy to learn more. By continuing to use the site, you agree to this use of cookies and data.
  • In Czech Republic
  • List of Countries
  • For 7 days
  • Water Temperature
  • Satellite Maps
  • Weather Map
  • Weather Widgets
  • user-avatar
    Login

    Hourly Weather Cacheu

    Today, 15 December, Saturday

    Time Temperature Precipitation Wind Pressure Humidity
    00:00 +30°C° 0 mm 2 mps 760 mmHg 28%
    01:00 +29°C° 0 mm 2 mps 760 mmHg 28%
    02:00 +29°C° 0 mm 2 mps 760 mmHg 27%
    03:00 +29°C° 0 mm 2 mps 760 mmHg 26%
    04:00 +28°C° 0 mm 2 mps 760 mmHg 24%
    05:00 +27°C° 0 mm 3 mps 760 mmHg 25%
    06:00 +28°C° 0 mm 3 mps 760 mmHg 22%
    07:00 +29°C° 0 mm 3 mps 760 mmHg 19%
    08:00 +30°C° 0 mm 4 mps 761 mmHg 16%
    09:00 +34°C° 0 mm 4 mps 761 mmHg 14%
    10:00 +36°C° 0 mm 5 mps 761 mmHg 12%
    11:00 +40°C° 0 mm 5 mps 760 mmHg 10%
    12:00 +41°C° 0 mm 5 mps 760 mmHg 10%
    13:00 +42°C° 0 mm 4 mps 759 mmHg 9%
    14:00 +43°C° 0 mm 4 mps 759 mmHg 9%
    15:00 +42°C° 0 mm 4 mps 759 mmHg 10%
    16:00 +40°C° 0 mm 3 mps 759 mmHg 11%
    17:00 +39°C° 0 mm 3 mps 759 mmHg 12%
    18:00 +36°C° 0 mm 3 mps 759 mmHg 14%
    19:00 +34°C° 0 mm 4 mps 760 mmHg 16%
    20:00 +32°C° 0 mm 5 mps 760 mmHg 18%
    21:00 +30°C° 0 mm 5 mps 760 mmHg 17%
    22:00 +30°C° 0 mm 5 mps 761 mmHg 15%
    23:00 +29°C° 0 mm 5 mps 761 mmHg 14%

    Tomorrow, 16 December, Sunday

    Time Temperature Precipitation Wind Pressure Humidity
    00:00 +29°C° 0 mm 5 mps 761 mmHg 15%
    01:00 +28°C° 0 mm 5 mps 760 mmHg 16%
    02:00 +27°C° 0 mm 5 mps 760 mmHg 18%
    03:00 +28°C° 0 mm 5 mps 760 mmHg 17%
    04:00 +28°C° 0 mm 6 mps 760 mmHg 15%
    05:00 +28°C° 0 mm 6 mps 760 mmHg 14%
    06:00 +29°C° 0 mm 6 mps 760 mmHg 16%
    07:00 +29°C° 0 mm 7 mps 761 mmHg 17%
    08:00 +29°C° 0 mm 7 mps 761 mmHg 19%
    09:00 +33°C° 0 mm 7 mps 761 mmHg 17%
    10:00 +35°C° 0 mm 7 mps 761 mmHg 14%
    11:00 +38°C° 0 mm 7 mps 761 mmHg 12%
    12:00 +39°C° 0 mm 6 mps 760 mmHg 12%
    13:00 +40°C° 0 mm 6 mps 759 mmHg 11%
    14:00 +41°C° 0 mm 5 mps 758 mmHg 11%
    15:00 +40°C° 0 mm 4 mps 758 mmHg 12%
    16:00 +38°C° 0 mm 3 mps 758 mmHg 13%
    17:00 +38°C° 0 mm 3 mps 758 mmHg 14%
    18:00 +35°C° 0 mm 3 mps 758 mmHg 16%
    19:00 +33°C° 0 mm 3 mps 759 mmHg 18%
    20:00 +30°C° 0 mm 3 mps 759 mmHg 20%
    21:00 +29°C° 0 mm 3 mps 760 mmHg 21%
    22:00 +28°C° 0 mm 3 mps 760 mmHg 22%
    23:00 +27°C° 0 mm 3 mps 760 mmHg 22%

    Day after tomorrow, 17 December, Monday

    Time Temperature Precipitation Wind Pressure Humidity
    00:00 +27°C° 0 mm 3 mps 760 mmHg 21%
    01:00 +26°C° 0 mm 3 mps 759 mmHg 19%
    02:00 +26°C° 0 mm 3 mps 759 mmHg 17%
    03:00 +25°C° 0 mm 3 mps 759 mmHg 17%
    04:00 +25°C° 0 mm 3 mps 759 mmHg 17%
    05:00 +24°C° 0 mm 3 mps 759 mmHg 17%
    06:00 +25°C° 0 mm 4 mps 759 mmHg 15%
    07:00 +27°C° 0 mm 4 mps 759 mmHg 14%
    08:00 +28°C° 0 mm 4 mps 760 mmHg 13%
    09:00 +32°C° 0 mm 4 mps 759 mmHg 11%
    10:00 +35°C° 0 mm 4 mps 759 mmHg 9%
    11:00 +38°C° 0 mm 4 mps 759 mmHg 7%
    12:00 +39°C° 0 mm 3 mps 758 mmHg 7%
    13:00 +40°C° 0 mm 3 mps 758 mmHg 7%
    14:00 +41°C° 0 mm 2 mps 757 mmHg 7%
    15:00 +40°C° 0 mm 2 mps 757 mmHg 9%
    16:00 +38°C° 0 mm 3 mps 757 mmHg 11%
    17:00 +37°C° 0 mm 3 mps 757 mmHg 13%
    18:00 +34°C° 0 mm 3 mps 757 mmHg 19%
    19:00 +31°C° 0 mm 3 mps 758 mmHg 24%
    20:00 +28°C° 0 mm 3 mps 759 mmHg 29%
    21:00 +28°C° 0 mm 3 mps 759 mmHg 31%
    22:00 +27°C° 0 mm 2 mps 759 mmHg 34%
    23:00 +26°C° 0 mm 2 mps 759 mmHg 36%

    18 December, Tuesday

    Time Temperature Precipitation Wind Pressure Humidity
    00:00 +25°C° 0 mm 2 mps 759 mmHg 35%
    01:00 +25°C° 0 mm 2 mps 759 mmHg 33%
    02:00 +24°C° 0 mm 2 mps 758 mmHg 32%
    03:00 +24°C° 0 mm 2 mps 758 mmHg 29%
    04:00 +23°C° 0 mm 2 mps 758 mmHg 26%
    05:00 +22°C° 0 mm 3 mps 758 mmHg 23%
    06:00 +24°C° 0 mm 3 mps 759 mmHg 21%
    07:00 +26°C° 0 mm 3 mps 759 mmHg 19%
    08:00 +27°C° 0 mm 3 mps 760 mmHg 17%
    09:00 +30°C° 0 mm 3 mps 760 mmHg 15%
    10:00 +34°C° 0 mm 3 mps 759 mmHg 12%
    11:00 +37°C° 0 mm 3 mps 759 mmHg 10%
    12:00 +38°C° 0 mm 3 mps 759 mmHg 10%
    13:00 +39°C° 0 mm 2 mps 758 mmHg 10%
    14:00 +40°C° 0 mm 2 mps 757 mmHg 10%
    15:00 +39°C° 0 mm 2 mps 757 mmHg 14%
    16:00 +37°C° 0 mm 2 mps 757 mmHg 19%
    17:00 +35°C° 0 mm 2 mps 757 mmHg 24%
    18:00 +32°C° 0 mm 2 mps 757 mmHg 31%
    19:00 +30°C° 0 mm 2 mps 758 mmHg 37%
    20:00 +27°C° 0 mm 2 mps 759 mmHg 44%
    21:00 +27°C° 0 mm 2 mps 759 mmHg 45%
    22:00 +26°C° 0 mm 2 mps 759 mmHg 45%
    23:00 +25°C° 0 mm 1 mps 759 mmHg 46%

    19 December, Wednesday

    Time Temperature Precipitation Wind Pressure Humidity
    00:00 +25°C° 0 mm 2 mps 759 mmHg 45%
    01:00 +25°C° 0 mm 2 mps 758 mmHg 45%
    02:00 +24°C° 0 mm 2 mps 758 mmHg 44%
    03:00 +24°C° 0 mm 2 mps 758 mmHg 41%
    04:00 +23°C° 0 mm 2 mps 758 mmHg 37%
    05:00 +23°C° 0 mm 2 mps 758 mmHg 34%
    06:00 +24°C° 0 mm 2 mps 759 mmHg 32%
    07:00 +25°C° 0 mm 3 mps 759 mmHg 31%
    08:00 +26°C° 0 mm 3 mps 759 mmHg 30%
    09:00 +29°C° 0 mm 3 mps 759 mmHg 26%
    10:00 +34°C° 0 mm 3 mps 759 mmHg 21%
    11:00 +37°C° 0 mm 3 mps 759 mmHg 17%
    12:00 +38°C° 0 mm 3 mps 758 mmHg 16%
    13:00 +39°C° 0 mm 3 mps 757 mmHg 14%
    14:00 +40°C° 0 mm 2 mps 756 mmHg 13%
    15:00 +39°C° 0 mm 2 mps 756 mmHg 16%
    16:00 +37°C° 0 mm 2 mps 756 mmHg 20%
    17:00 +36°C° 0 mm 2 mps 756 mmHg 23%
    18:00 +32°C° 0 mm 2 mps 757 mmHg 30%
    19:00 +30°C° 0 mm 2 mps 757 mmHg 38%
    20:00 +27°C° 0 mm 2 mps 758 mmHg 45%
    21:00 +27°C° 0 mm 2 mps 758 mmHg 44%
    22:00 +26°C° 0 mm 2 mps 758 mmHg 44%
    23:00 +25°C° 0 mm 2 mps 758 mmHg 43%

    20 December, Thursday

    Time Temperature Precipitation Wind Pressure Humidity
    00:00 +25°C° 0 mm 2 mps 758 mmHg 41%
    01:00 +24°C° 0 mm 2 mps 758 mmHg 38%
    02:00 +24°C° 0 mm 2 mps 757 mmHg 35%
    03:00 +24°C° 0 mm 2 mps 757 mmHg 31%
    04:00 +23°C° 0 mm 2 mps 757 mmHg 28%
    05:00 +23°C° 0 mm 2 mps 758 mmHg 24%
    06:00 +24°C° 0 mm 2 mps 758 mmHg 22%
    07:00 +25°C° 0 mm 2 mps 758 mmHg 20%
    08:00 +27°C° 0 mm 3 mps 759 mmHg 18%
    09:00 +30°C° 0 mm 3 mps 759 mmHg 15%
    10:00 +34°C° 0 mm 3 mps 759 mmHg 12%
    11:00 +37°C° 0 mm 3 mps 759 mmHg 10%
    12:00 +39°C° 0 mm 3 mps 758 mmHg 10%
    13:00 +40°C° 0 mm 2 mps 757 mmHg 9%
    14:00 +41°C° 0 mm 2 mps 756 mmHg 9%
    15:00 +39°C° 0 mm 2 mps 756 mmHg 13%
    16:00 +37°C° 0 mm 2 mps 756 mmHg 18%
    17:00 +36°C° 0 mm 3 mps 756 mmHg 22%
    18:00 +33°C° 0 mm 3 mps 757 mmHg 28%
    19:00 +30°C° 0 mm 3 mps 757 mmHg 35%
    20:00 +27°C° 0 mm 2 mps 758 mmHg 41%
    21:00 +27°C° 0 mm 2 mps 758 mmHg 40%
    22:00 +26°C° 0 mm 2 mps 758 mmHg 40%
    23:00 +25°C° 0 mm 2 mps 758 mmHg 39%
    Show more